Location: Athis
(48.7052°N, 2.3915°E)
Time: 19:10:08
(UTC+00:00)

Daily predictions for brighter satellites

Satellite Brightness Start Highest point End
(mag) Time Altitude Azimuth Time Altitude Azimuth Time Altitude Azimuth
SL-8 R/B 4.1 18:58:28 10° SW 19:03:06 48° SSE 19:07:45 10° E
PSLV R/B 4.3 19:02:31 10° N 19:06:37 71° WNW 19:10:42 10° SSW
Cosmos 1315 Rocket 2.9 19:02:55 10° S 19:06:54 55° E 19:10:52 10° NNE
Cosmos 292 Rocket 3.9 19:02:36 10° NNW 19:07:27 63° ENE 19:12:17 10° SE
Cosmos 1833 Rocket 3.9 19:03:22 10° SW 19:08:47 48° NW 19:14:15 10° NNE
BREEZE-M DEB (TANK) 3.8 19:06:03 10° S 19:09:08 30° SE 19:16:38 10° ENE
USA 238 DEB 4.1 19:04:59 10° NW 19:12:06 62° NE 19:19:32 10° ESE
USA 238 4.1 19:05:05 10° NW 19:12:12 62° NE 19:19:39 10° ESE
Cosmos 1544 Rocket 3.5 19:09:26 10° S 19:13:49 77° E 19:18:13 10° NNE
Cosmos 1626 Rocket 3.5 19:09:57 10° N 19:14:20 68° E 19:18:42 10° SSE
DMSP B5D2-2 4.1 19:10:46 10° NNE 19:16:00 68° ESE 19:21:12 10° S
Cosmos 2360 Rocket 3.2 19:14:05 10° NNW 19:19:09 32° NE 19:24:03 10° ESE
NOSS 3-2 (A) 4.1 19:12:23 10° NW 19:19:49 78° NE 19:28:17 10° SE
NOSS 2-2 (C) 3.7 19:16:45 10° SW 19:20:10 59° NW 19:24:02 10° NE
Cosmos 1048 Rocket 4.3 19:15:32 10° S 19:20:32 47° ESE 19:25:38 10° NNE
Cosmos 1300 3.6 19:17:18 10° SSE 19:20:35 28° E 19:23:54 10° NNE
USA 32 4.1 19:19:01 10° SSE 19:24:07 57° E 19:29:16 10° NNE
NOSS 2-2 (E) 4.4 19:21:07 10° WSW 19:24:29 44° NW 19:28:22 10° NNE
Resurs 01 Rocket 2.8 19:21:07 10° ESE 19:24:50 27° ENE 19:28:34 10° N
SL-16 R/B 2.3 19:19:24 10° NNW 19:25:04 64° ENE 19:30:42 10° SE
CSL-04 Rocket 4.4 19:23:06 10° S 19:28:19 55° WSW 19:33:31 10° NNW
Cosmos 1455 Rocket 4.2 19:24:34 10° SSW 19:28:53 49° WNW 19:33:14 10° N
CZ-4C R/B 3.0 19:26:50 10° SSE 19:30:40 23° ESE 19:35:01 10° ENE
Cosmos 1452 Rocket 3.7 19:26:44 10° NNW 19:32:02 75° WSW 19:37:18 10° SSE
SAR-Lupe-4 4.4 19:29:20 10° N 19:32:52 55° WNW 19:36:23 10° SSW
OBJECT-B 0.7 19:30:41 10° SSE 19:33:53 79° ENE 19:37:07 10° N
Cosmos 1184 Rocket 3.1 19:32:17 10° N 19:35:21 43° ENE 19:37:57 13° SE
Cosmos 1980 Rocket 3.7 19:31:37 10° NW 19:36:44 36° WSW 19:41:48 10° S
USA 215 3.3 19:32:57 11° SE 19:39:17 81° SW 19:45:52 10° WNW
Cosmos 2219 Rocket 3.7 19:36:31 10° N 19:40:56 22° NE 19:44:53 12° E
ATLAS 3B R/B 4.0 19:36:45 10° NW 19:42:43 30° NNE 19:48:53 10° E
CZ-2C R/B 3.7 19:38:21 10° N 19:43:19 47° WNW 19:48:16 10° SW
Cosmos 1464 Rocket 4.0 19:37:13 10° S 19:43:28 63° E 19:49:40 10° NNE
Meteor 1-11 4.3 19:38:34 10° N 19:44:25 84° ENE 19:50:12 10° SSE
CENTAUR R/B 3.3 19:36:57 10° NW 19:44:58 79° NE 19:52:44 15° SE
Nadezhda 4 Rocket 4.1 19:44:14 10° N 19:50:31 61° ENE 19:56:45 10° SSE
IRS-1A Rocket 4.2 19:45:26 10° SSE 19:50:57 89° ENE 19:56:37 10° NNW
SME Rocket 3.7 19:50:00 10° N 19:53:42 55° WNW 19:57:35 10° SSW
Cosmos 2237 Rocket 4.4 19:51:55 10° N 19:54:30 13° NNE 19:57:03 10° ENE
Resurs 1-3 3.5 19:51:12 10° SSE 19:55:34 80° ENE 19:59:59 10° NNW
Cosmos 1953 Rocket 4.1 19:53:31 10° N 19:57:41 39° ENE 20:00:00 22° SE
Cosmos 2333 Rocket 3.3 19:53:12 10° NNW 19:58:18 31° NE 20:01:44 18° E
In-Cosmos 22 Rocket 4.5 19:52:43 10° N 19:58:25 54° ENE 20:02:48 17° SE
Cosmos 1455 3.9 20:00:06 17° E 20:00:06 17° E 20:02:14 10° NE
MOS 1 4.4 19:55:22 10° SSE 20:01:01 79° WSW 20:06:42 10° NNW
Cosmos 2058 4.3 20:03:45 10° NNE 20:07:09 23° ENE 20:08:05 21° E
Cosmos 2026 Rocket 4.4 20:03:06 10° N 20:08:49 41° ENE 20:12:06 23° SE
Cosmos 1302 Rocket 4.2 20:04:14 10° NNW 20:09:29 58° ENE 20:12:32 24° SE
Ariane Rocket 3.4 20:06:22 10° S 20:11:23 64° WSW 20:16:26 10° NNW
ATLAS 5 CENTAUR R/B 1.3 20:08:17 10° SSW 20:12:11 60° SE 20:16:36 10° NE
SL-27 R/B 2.6 20:10:18 18° S 20:12:42 47° ESE 20:16:06 10° NNE
CZ-2C R/B 4.2 20:08:52 10° NNE 20:13:02 36° E 20:14:42 27° SE
IGS 5A 3.5 20:10:54 26° SE 20:13:05 59° ENE 20:17:11 10° N
Atlas Centaur 2 4.3 20:07:25 10° SW 20:13:12 20° S 20:16:22 16° SSE
Cosmos 2228 2.9 20:10:00 10° S 20:14:20 72° E 20:18:42 10° NNE
Cosmos 2322 Rocket 2.4 20:11:07 10° NNW 20:16:49 72° WSW 20:21:07 18° SSE
Cosmos 2322 4.4 20:12:18 10° NNW 20:17:39 41° NE 20:20:22 25° ESE
Lacrosse 5 rocket 1.6 20:14:26 10° SSW 20:18:15 42° SE 20:20:53 19° ENE
Cosmos 494 Rocket 4.1 20:13:24 10° SSW 20:18:38 82° WNW 20:23:57 10° NNE
Cosmos 1825 Rocket 3.5 20:15:51 10° N 20:20:14 84° W 20:23:15 20° S
NOSS 3-4 (A) 3.7 20:15:43 10° S 20:21:01 39° ESE 20:26:41 10° NE
NOSS 3-4 (C) 3.7 20:15:47 10° S 20:21:07 39° ESE 20:26:48 10° NE
ARIANE 5 R/B 3.4 20:19:51 29° ESE 20:21:12 35° ENE 20:25:14 10° N
Cosmos 1441 Rocket 4.1 20:18:42 10° NNW 20:22:28 48° W 20:25:51 13° S
Cosmos 2082 Rocket 4.4 20:19:40 10° WSW 20:24:30 28° NW 20:29:21 10° NNE
NOSS 3-2 (C) 4.1 20:17:08 10° NW 20:24:37 78° SW 20:30:27 22° SSE
Cosmos 1758 Rocket 4.2 20:20:33 10° NNW 20:24:52 54° W 20:28:59 11° S
Cosmos 1892 2.5 20:22:32 10° N 20:26:18 71° E 20:27:29 41° SSE
CARTOSAT-1 4.3 20:29:05 31° E 20:29:58 35° ENE 20:33:54 10° N
ATLAS 2AS CENTAUR R/B 3.4 20:27:46 10° S 20:34:55 39° ESE 20:42:01 10° NE
Cosmos 1408 2.4 20:31:54 10° N 20:35:30 67° E 20:35:58 59° SE
Lacrosse 4 Rocket 4.0 20:33:25 10° WNW 20:36:06 16° WSW 20:38:44 10° SW
COSMOS 2428 3.4 20:31:54 10° NNW 20:37:18 40° NE 20:39:28 29° E
Terra 2.9 20:40:21 26° E 20:41:06 28° ENE 20:45:07 10° N
Cosmos 1992 Rocket 4.4 20:36:50 10° NNW 20:41:53 47° ENE 20:43:22 37° ESE
SL-8 R/B 3.6 20:40:37 10° W 20:45:29 86° S 20:47:20 38° E
BREEZE-M DEB (TANK) 4.1 20:43:09 10° WSW 20:47:37 88° NNW 21:06:16 10° ENE
SPOT 1/Viking Rocket 3.5 20:47:23 37° SSE 20:49:32 84° ENE 20:54:48 10° NNW
Cosmos 1833 4.1 20:44:47 10° SSW 20:50:20 67° ESE 20:55:58 10° NNE
Cosmos 1076 Rocket 4.3 20:47:24 10° N 20:51:25 35° ENE 20:51:25 35° ENE
Cosmos 2333 4.2 20:45:44 10° NNW 20:51:34 76° ENE 20:53:36 42° SE
SPOT 3 Rocket 4.1 20:49:58 21° S 20:53:20 54° W 20:58:28 10° NNW
Cosmos 2195 Rocket 4.5 20:48:03 10° N 20:54:20 84° W 20:57:51 28° S
BREEZE-M DEB (TANK) 4.3 20:56:15 10° WSW 20:57:06 14° SW 20:57:06 14° SW
Cosmos 1092 Rocket 4.2 20:54:01 10° NNW 21:00:19 72° W 21:04:00 26° S
Resurs 01 Rocket 2.8 20:58:39 21° SSW 21:01:10 38° W 21:05:21 10° NNW
Cosmos 1825 2.0 20:57:51 10° N 21:01:31 81° NE 21:01:31 81° NE
USA 245 3.8 21:00:20 44° S 21:01:50 78° WSW 21:06:03 10° NNW
MetOp-B 4.5 20:59:21 29° S 21:02:04 62° WSW 21:07:24 10° NNW
Cosmos 2360 Rocket 2.7 20:57:55 10° NW 21:03:27 54° WSW 21:05:50 32° S
SL-16 R/B 4.1 21:04:18 10° NW 21:08:42 24° WSW 21:12:53 11° SSW
Cosmos 2251 Rocket 4.4 21:10:54 33° ENE 21:10:54 33° ENE 21:14:37 10° NE
Exosat Rocket 4.0 21:04:48 10° NNW 21:12:24 82° ENE 21:14:03 50° SE
Cosmos 2151 4.2 21:08:46 10° N 21:11:58 30° NE 21:11:58 30° NE
Cosmos 405 3.6 21:14:27 54° NNW 21:14:27 54° NNW 21:17:24 10° N
BREEZE-M DEB (TANK) 4.3 21:10:29 10° WSW 21:14:17 83° SSE 21:26:11 10° ENE
Meteor 2-10 Rocket 4.1 21:12:17 15° SSW 21:16:23 56° WNW 21:21:37 10° N
ERS-1 Rocket 2.8 21:16:15 65° SE 21:16:55 78° ENE 21:21:58 10° NNW
CZ-4C R/B 2.4 21:13:25 10° SW 21:18:26 68° NW 21:24:35 10° NE
Cosmos 2058 Rocket 3.4 21:17:40 42° SW 21:18:54 60° WNW 21:23:14 10° N
Cosmos 405 Rocket 3.2 21:17:09 10° N 21:20:35 57° NNE 21:20:35 57° NNE
Spot 2 Rocket 3.7 21:20:45 48° SSW 21:22:01 65° WSW 21:27:06 10° NNW
Meteor 2-1 Rocket 4.2 21:20:18 47° S 21:22:03 85° E 21:27:58 10° NNE
Cosmos 2219 Rocket 2.1 21:19:55 10° NNW 21:25:39 87° WSW 21:26:36 64° SSE
SPOT 5 2.6 21:30:18 82° WNW 21:30:18 82° WNW 21:34:45 10° NNW
ATLAS 3B R/B 2.8 21:27:30 10° NW 21:34:30 76° NE 21:36:24 52° ESE
Cosmos 1455 3.3 21:34:56 39° W 21:35:02 39° WNW 21:38:36 10° N
CENTAUR R/B 4.3 21:28:09 10° NW 21:35:24 35° WSW 21:39:56 22° SSW
Cosmos 2237 Rocket 2.7 21:34:41 10° NNW 21:40:07 45° NE 21:40:36 44° ENE
Cosmos 2333 Rocket 2.5 21:37:17 10° NW 21:42:56 58° WSW 21:43:45 53° SW
Cosmos 2058 4.1 21:40:17 10° NNW 21:44:11 37° W 21:44:17 37° W
Cosmos 2279 Rocket 4.0 21:42:32 50° SSW 21:44:16 80° W 21:50:30 10° N
Cosmos 1633 4.3 21:44:45 10° N 21:46:40 29° N 21:46:40 29° N
Cosmos 1812 Rocket 4.3 21:49:50 48° NNE 21:49:50 48° NNE 21:53:05 10° N
Meteor 2-3 Rocket 3.8 21:44:57 10° N 21:50:44 65° ENE 21:50:46 65° ENE
Cosmos 1655 Rocket 3.9 21:50:27 10° N 21:56:50 87° W 21:57:32 72° S
ATLAS 5 CENTAUR R/B 3.6 21:53:34 10° W 21:57:10 27° NNW 22:01:15 10° NNE
Lacrosse 5 rocket 2.5 21:53:22 10° W 21:56:46 43° NW 21:56:46 43° NW
ARIANE 5 R/B 4.1 21:57:23 28° WSW 21:57:41 28° W 22:01:33 10° NW
Cosmos 2227 Rocket 4.2 22:00:48 16° ENE 22:00:48 16° ENE 22:02:15 10° NE
Cosmos-2242 4.5 22:03:14 31° NNE 22:03:14 31° NNE 22:05:37 10° NNE
Cosmos 2297 Rocket 3.8 22:09:15 23° ENE 22:09:15 23° ENE 22:11:39 10° NE
Cosmos 2266 Rocket 3.9 22:02:42 10° N 22:09:10 84° W 22:09:40 76° SSW
Cosmos 2344 3.4 22:01:54 10° SW 22:09:22 87° NW 22:17:28 10° NE
NOSS 3-4 (A) 4.1 22:06:00 10° WSW 22:11:43 52° NW 22:18:00 10° NE
NOSS 3-4 (C) 4.1 22:06:03 10° WSW 22:11:49 52° NW 22:18:06 10° NE
SeaSat 1 3.0 22:07:24 10° NNE 22:11:11 53° NNE 22:11:11 53° NNE
Terra 2.8 22:19:14 40° W 22:19:14 40° W 22:23:13 10° NNW
Cosmos 909 Rocket 3.9 22:18:55 85° SSW 22:19:06 89° ESE 22:25:34 10° NE
COSMOS 2428 3.5 22:16:16 10° NW 22:21:30 41° WSW 22:21:30 41° WSW
NOSS 0 Rocket 4.0 22:16:02 10° NNW 22:22:06 69° WSW 22:22:06 69° WSW
ATLAS 2AS CENTAUR R/B 3.3 22:17:46 10° SW 22:25:40 67° NW 22:33:22 10° NE
SL-16 R/B 3.1 22:22:44 10° NNW 22:28:02 40° NE 22:28:02 40° NE
Cosmos 1980 3.9 22:27:43 10° NNW 22:32:39 65° NW 22:32:39 65° NW
CZ-4C R/B 4.4 23:03:30 10° WNW 23:08:11 26° NNW 23:13:39 10° NE
Cosmos 2219 Rocket 4.4 23:05:37 10° WNW 23:08:20 15° W 23:08:20 15° W
USA 281 3.4 23:12:45 59° ENE 23:12:56 59° ENE 23:19:24 10° NNW
ALOS 2 4.4 23:18:29 29° NNW 23:18:29 29° NNW 23:20:41 10° NNW
Timation 2 Rocket 4.2 23:22:16 69° NNE 23:22:16 69° NNE 23:27:49 10° NNE
Cosmos 2237 Rocket 3.6 23:19:01 10° NW 23:22:26 29° WNW 23:22:26 29° WNW
ATLAS 3B R/B 4.0 23:18:47 10° NW 23:23:39 28° W 23:23:39 28° W
Cosmos 1818 4.5 23:28:10 46° NNW 23:28:10 46° NNW 23:32:52 10° NNE
Lacrosse 5 rocket 4.5 23:41:20 10° ENE 23:41:20 10° ENE 23:32:39 - WNW
Cosmos 2219 3.9 23:41:08 49° NNW 23:41:08 49° NNW 23:45:43 10° NNE
Cosmos 2227 Rocket 2.9 23:42:35 51° N 23:42:35 51° N 23:47:05 10° NNE
Cosmos 1745 Rocket 4.3 23:42:30 10° NNW 23:47:54 63° NW 23:47:54 63° NW
Cosmos 2297 Rocket 3.1 23:51:01 44° NW 23:51:01 44° NW 23:55:58 10° NNE
Cosmos 2263 Rocket 3.8 23:56:34 25° ENE 23:56:34 25° ENE 23:59:24 10° NE
